Location: La Pernelle
(49.6188°N, 1.2999°W)
Time: 09:57:06
(UTC+00:00)

Meteor 2-5 Rocket - Pass Details

Date: 12 June 2021
Orbit: 833 x 911 km, 81.2° (Epoch: 01 August)

Event Time Altitude Azimuth Distance (km) Brightness Sun altitude
Exits shadow 22:47:27 23° 173° (S) 1,725 4.7 -15.1°
Maximum altitude 22:50:58 65° 98° (E) 916 3.8 -15.3°
Drops below altitude 10° 22:56:30 10° 17° (NNE) 2,474 7.0 -15.6°
Sets 22:58:57 0° 15° (NNE) 3,422 7.9 -15.7°
